Le nostre stazioni meteo in Italia

Pubblicità
Il mio iltempo24.it
Monte Settepani, Italia (16111): Temperatura & dewpoint: 16.11.2019 08:00:00 - 22.11.2019 08:00:00 (CET)Monte Settepani, Italia (16111): velocità del vento: 16.11.2019 08:00:00 - 22.11.2019 08:00:00 (CET)Monte Settepani, Italia (16111): direzione del vento: 16.11.2019 08:00:00 - 22.11.2019 08:00:00 (CET)
Data & Tempo tt [°C] td [°C] ff [km/h] ff [kn] dd
22.11.2019 08:00:00 - - - - -
22.11.2019 07:00:00 - - - - -
22.11.2019 06:00:00 0,4 0,4 16 9 NO
22.11.2019 05:00:00 0,6 0,6 15 8 ONO
22.11.2019 04:00:00 1,6 1,6 4 2 NE
22.11.2019 03:00:00 1,5 1,5 2 1 SSE
22.11.2019 02:00:00 2,1 2,1 5 3 ENE
22.11.2019 01:00:00 2,2 2,2 2 1 ENE
22.11.2019 00:00:00 2,0 2,0 2 1 E
21.11.2019 23:00:00 1,5 1,5 4 2 NNE
21.11.2019 22:00:00 1,4 1,4 4 2 N
21.11.2019 21:00:00 1,5 1,5 5 3 N
21.11.2019 20:00:00 1,2 1,2 11 6 N
21.11.2019 19:00:00 1,7 1,7 8 4 N
21.11.2019 18:00:00 2,0 2,0 0 0 N
21.11.2019 17:00:00 2,0 2,0 2 1 NNO
21.11.2019 16:00:00 2,3 2,3 0 0 N
21.11.2019 15:00:00 2,2 2,2 2 1 OSO
21.11.2019 14:00:00 2,2 2,2 4 2 SSO
21.11.2019 13:00:00 2,3 2,3 9 5 SSO
21.11.2019 12:00:00 2,2 2,2 8 4 SSO
21.11.2019 11:00:00 1,7 1,7 11 6 S
21.11.2019 10:00:00 1,3 1,3 15 8 SSO
21.11.2019 09:00:00 0,8 0,8 15 8 SSO
21.11.2019 08:00:00 1,0 1,0 18 10 SSO
21.11.2019 07:00:00 0,8 0,8 24 13 SSO
21.11.2019 06:00:00 0,9 0,9 21 11 SSO
21.11.2019 05:00:00 1,1 1,1 21 11 SSO
21.11.2019 04:00:00 1,3 1,3 15 8 SSO
21.11.2019 03:00:00 1,1 1,1 18 10 SSO
21.11.2019 02:00:00 1,9 1,9 18 10 SSO
21.11.2019 01:00:00 2,0 2,0 15 8 SSO
21.11.2019 00:00:00 2,2 2,2 18 10 SSO
20.11.2019 23:00:00 2,4 2,4 16 9 SSO
20.11.2019 22:00:00 2,3 2,3 16 9 SSO
20.11.2019 21:00:00 2,4 2,4 15 8 SSO
20.11.2019 20:00:00 2,5 2,5 11 6 SSO
20.11.2019 19:00:00 3,0 3,0 8 4 S
20.11.2019 18:00:00 3,0 3,0 8 4 S
20.11.2019 17:00:00 2,9 2,9 5 3 S
20.11.2019 16:00:00 3,1 3,1 2 1 S
20.11.2019 15:00:00 3,5 3,5 2 1 E
20.11.2019 14:00:00 3,5 3,5 2 1 NNO
20.11.2019 13:00:00 3,4 3,4 5 3 NNO
20.11.2019 12:00:00 2,8 2,8 4 2 NO
20.11.2019 11:00:00 2,2 2,2 15 8 ONO
20.11.2019 10:00:00 2,0 2,0 15 8 NO
20.11.2019 09:00:00 2,0 2,0 16 9 NO
20.11.2019 08:00:00 2,0 2,0 15 8 NO
20.11.2019 07:00:00 1,7 1,7 18 10 NO
20.11.2019 06:00:00 1,6 1,6 16 9 NO
20.11.2019 05:00:00 1,6 1,6 15 8 NO
20.11.2019 04:00:00 0,9 0,9 15 8 NNO
20.11.2019 03:00:00 0,6 0,6 16 9 NNO
20.11.2019 02:00:00 0,1 0,1 13 7 NNO
20.11.2019 01:00:00 -0,1 -0,1 0 0 N
20.11.2019 00:00:00 -0,2 -0,2 0 0 N
19.11.2019 23:00:00 -0,2 -0,2 0 0 N
19.11.2019 22:00:00 -0,1 -0,1 0 0 N
19.11.2019 21:00:00 -0,1 -0,1 0 0 N
19.11.2019 20:00:00 -0,1 -0,1 0 0 N
19.11.2019 19:00:00 -0,2 -0,2 0 0 N
19.11.2019 18:00:00 -0,2 -0,2 0 0 N
19.11.2019 17:00:00 -0,5 -0,5 16 9 N
19.11.2019 16:00:00 -0,5 -0,5 9 5 NNE
19.11.2019 15:00:00 -0,7 -0,7 15 8 NNE
19.11.2019 14:00:00 -0,9 -0,9 21 11 NNO
19.11.2019 13:00:00 -1,0 -1,0 24 13 NNO
19.11.2019 12:00:00 -1,3 -1,3 21 11 NNO
19.11.2019 11:00:00 -1,6 -1,6 21 11 N
19.11.2019 10:00:00 -1,7 -1,7 15 8 NNO
19.11.2019 09:00:00 -2,0 -2,0 21 11 N
19.11.2019 08:00:00 -2,0 -2,0 21 11 N
19.11.2019 07:00:00 -2,4 -2,4 29 16 N
19.11.2019 06:00:00 -2,6 -2,6 26 14 ENE
19.11.2019 05:00:00 -2,7 -2,7 29 16 N
19.11.2019 04:00:00 -2,7 -2,7 24 13 N
19.11.2019 03:00:00 -2,8 -2,8 22 12 N
19.11.2019 02:00:00 -2,8 -2,8 31 17 N
19.11.2019 01:00:00 -2,6 -2,6 34 18 N
19.11.2019 00:00:00 -2,5 -2,5 34 18 N
18.11.2019 23:00:00 -2,5 -2,5 29 16 N
18.11.2019 22:00:00 -2,3 -2,3 35 19 N
18.11.2019 21:00:00 -2,4 -2,4 34 18 N
18.11.2019 20:00:00 -2,4 -2,4 35 19 N
18.11.2019 19:00:00 -2,3 -2,3 41 22 N
18.11.2019 18:00:00 -2,4 -2,4 29 16 N
18.11.2019 17:00:00 -2,5 -2,5 22 12 N
18.11.2019 16:00:00 -2,3 -2,3 26 14 N
18.11.2019 15:00:00 -2,2 -2,2 24 13 NO
18.11.2019 14:00:00 -1,8 -1,8 13 7 NO
18.11.2019 13:00:00 -1,7 -1,7 13 7 NNO
18.11.2019 12:00:00 -1,7 -1,7 13 7 NNO
18.11.2019 11:00:00 -1,6 -1,6 15 8 NNO
18.11.2019 10:00:00 -1,8 -1,8 11 6 N
18.11.2019 09:00:00 -1,6 -1,6 2 1 SSO
18.11.2019 08:00:00 -1,6 -1,6 2 1 ESE
18.11.2019 07:00:00 -1,6 -1,6 0 0 N
18.11.2019 06:00:00 -1,5 -1,5 2 1 E
18.11.2019 05:00:00 -1,5 -1,5 5 3 NNE
18.11.2019 04:00:00 -1,5 -1,5 2 1 NE
18.11.2019 03:00:00 -1,5 -1,5 0 0 N
18.11.2019 02:00:00 -1,6 -1,6 4 2 NNO
18.11.2019 01:00:00 -1,1 -1,1 2 1 SSO
18.11.2019 00:00:00 -1,3 -1,3 9 5 ONO
17.11.2019 23:00:00 -1,2 -1,2 5 3 ONO
17.11.2019 22:00:00 -1,1 -1,1 2 1 SSO
17.11.2019 21:00:00 -0,7 -0,7 8 4 NO
17.11.2019 20:00:00 -0,3 -0,3 5 3 O
17.11.2019 19:00:00 -0,3 -0,3 8 4 SSO
17.11.2019 18:00:00 0,2 0,2 15 8 SSO
17.11.2019 17:00:00 0,2 0,2 16 9 S
17.11.2019 16:00:00 0,4 0,4 21 11 S
17.11.2019 15:00:00 0,6 0,6 26 14 S
17.11.2019 14:00:00 0,8 0,8 22 12 S
17.11.2019 13:00:00 0,0 0,0 8 4 S
17.11.2019 12:00:00 -0,3 -0,3 0 0 N
17.11.2019 11:00:00 -0,6 -0,6 0 0 N
17.11.2019 10:00:00 -1,0 -1,0 0 0 N
17.11.2019 09:00:00 -1,1 -1,1 35 19 N
17.11.2019 08:00:00 -1,4 -1,4 31 17 N
17.11.2019 07:00:00 -1,7 -1,7 13 7 NNO
17.11.2019 06:00:00 -2,3 -2,3 21 11 N
17.11.2019 05:00:00 -2,4 -2,4 26 14 N
17.11.2019 04:00:00 -2,2 -2,2 39 21 N
17.11.2019 03:00:00 -1,8 -1,8 35 19 N
17.11.2019 02:00:00 -1,8 -1,8 41 22 N
17.11.2019 01:00:00 -1,7 -1,7 35 19 N
17.11.2019 00:00:00 -1,7 -1,7 22 12 N
16.11.2019 23:00:00 -1,7 -1,7 28 15 N
16.11.2019 22:00:00 -1,6 -1,6 24 13 N
16.11.2019 21:00:00 -1,8 -1,8 18 10 N
16.11.2019 20:00:00 -2,1 -2,1 21 11 NNO
16.11.2019 19:00:00 -1,9 -1,9 22 12 ONO
16.11.2019 18:00:00 -2,3 -2,3 26 14 N
16.11.2019 17:00:00 -2,2 -2,2 26 14 ONO
16.11.2019 16:00:00 -1,3 -1,3 11 6 NO
16.11.2019 15:00:00 0,1 0,1 8 4 N
16.11.2019 14:00:00 0,6 0,6 4 2 SSO
16.11.2019 13:00:00 0,9 0,9 9 5 S
16.11.2019 12:00:00 1,1 1,1 16 9 S
16.11.2019 11:00:00 0,4 0,4 8 4 S
16.11.2019 10:00:00 0,1 0,1 8 4 SSO
16.11.2019 09:00:00 -0,1 -0,1 9 5 SSO
16.11.2019 08:00:00 -0,2 -0,2 15 8 SSO

tt = Temperatura
td = dewpoint
ff = velocità del vento
dd = direzione del vento

Stazioni seguenti

WeatherPro
AMSI
MeteoEarth